Change the Weather History Date:

Thursday, April 4, 2013

  Actual Average (KAMA) Record (KAMA)
Temperature  
Mean Temperature 46 °F 53 °F  
Max Temperature 71 °F 68 °F 87 °F (1942)
Min Temperature 21 °F 38 °F 13 °F (1920)
Degree Days  
Heating Degree Days 19 12  
Month to date heating degree days 51  
Since 1 July heating degree days 3860  
Cooling Degree Days 0 0  
Month to date cooling degree days 0  
Year to date cooling degree days 2  
Moisture  
Dew Point 26 °F    
Average Humidity 55    
Maximum Humidity 92    
Minimum Humidity 15    
Precipitation  
Precipitation 0.00 in 0.04 in 1.09 in (1962)
Month to date precipitation 0.18  
Year to date precipitation 2.85  
Snow  
Snow 0.00 in 0.10 in 2.00 in (1983)
Month to date snowfall 0.2  
Since 1 July snowfall 17.1  
Snow Depth -    
Sea Level Pressure  
Sea Level Pressure 30.16 in    
Wind  
Wind Speed 4 mph (NNE)    
Max Wind Speed 14 mph    
Max Gust Speed 17 mph    
Visibility 10 miles    
Events      
T = Trace of Precipitation, MM = Missing Value Source: NWS Daily Summary

Daily Weather History Graph

Daily Weather History Graph

Search for Another Location

Airport or City:

Trip Planner

Search our weather history database for the weather conditions in past years. The results will help you decide how hot, cold, wet, or windy it might be!

Date:

Astronomy

Apr. 04, 2013 Rise Set
Actual Time 7:31 AM CDT 8:13 PM CDT
Civil Twilight 7:06 AM CDT 8:38 PM CDT
Nautical Twilight 6:36 AM CDT 9:08 PM CDT
Astronomical Twilight 6:05 AM CDT 9:39 PM CDT
Moon 3:46 AM CDT (4/4) 2:46 PM CDT (4/4)
Length of Visible Light 13h 32m
Length of Day
12h 41m
Waning Crescent, 33% of the Moon is Illuminated
Apr 4
Waning Crescent
Apr 10
New
Apr 18
First Quarter
Apr 25
Full
May 2
Last Quarter

Hourly Weather History & Observations

Time (CDT) Temp. Windchill Dew Point Humidity Pressure Visibility Wind Dir Wind Speed Gust Speed Precip Events Conditions
12:15 AM 33.1 °F 28.7 °F 29.8 °F 88% 30.19 in 10.0 mi NW 4.6 mph - N/A   Overcast
12:35 AM 32.0 °F 28.7 °F 28.4 °F 87% 30.19 in 10.0 mi North 3.5 mph - N/A   Scattered Clouds
12:55 AM 30.4 °F - 27.1 °F 88% 30.19 in 10.0 mi Calm Calm - N/A   Scattered Clouds
1:15 AM 30.6 °F - 26.8 °F 86% 30.19 in 10.0 mi Calm Calm - N/A   Mostly Cloudy
1:35 AM 30.9 °F 27.5 °F 27.5 °F 87% 30.20 in 10.0 mi NW 3.5 mph - N/A   Mostly Cloudy
1:55 AM 29.8 °F - 27.0 °F 89% 30.20 in 10.0 mi Calm Calm - N/A   Overcast
2:15 AM 31.1 °F - 28.2 °F 89% 30.20 in 10.0 mi Calm Calm - N/A   Overcast
2:35 AM 31.6 °F - 28.4 °F 88% 30.20 in 10.0 mi Calm Calm - N/A   Overcast
2:55 AM 31.6 °F 28.3 °F 28.4 °F 88% 30.19 in 10.0 mi North 3.5 mph - N/A   Overcast
3:15 AM 30.7 °F 26.0 °F 27.7 °F 88% 30.18 in 10.0 mi North 4.6 mph - N/A   Mostly Cloudy
3:35 AM 29.3 °F 23.2 °F 26.4 °F 89% 30.17 in 10.0 mi North 5.8 mph - N/A   Scattered Clouds
3:55 AM 27.5 °F 22.2 °F 25.3 °F 92% 30.17 in 10.0 mi North 4.6 mph - N/A   Clear
4:15 AM 26.6 °F 21.2 °F 23.9 °F 90% 30.16 in 10.0 mi North 4.6 mph - N/A   Clear
4:35 AM 26.1 °F 21.9 °F 23.5 °F 90% 30.16 in 10.0 mi North 3.5 mph - N/A   Clear
4:55 AM 25.3 °F 18.5 °F 22.8 °F 90% 30.16 in 10.0 mi NW 5.8 mph - N/A   Clear
5:15 AM 23.7 °F 16.6 °F 20.8 °F 89% 30.16 in 10.0 mi WNW 5.8 mph - N/A   Clear
5:35 AM 23.7 °F 16.6 °F 21.7 °F 92% 30.16 in 7.0 mi WNW 5.8 mph - N/A   Clear
5:55 AM 23.0 °F 18.4 °F 20.7 °F 91% 30.16 in 7.0 mi WNW 3.5 mph - N/A   Clear
6:15 AM 22.8 °F 15.5 °F 20.3 °F 90% 30.16 in 7.0 mi WNW 5.8 mph - N/A   Clear
6:35 AM 22.3 °F 16.1 °F 19.9 °F 91% 30.17 in 10.0 mi West 4.6 mph - N/A   Clear
6:55 AM 21.9 °F 14.5 °F 19.4 °F 90% 30.17 in 10.0 mi West 5.8 mph - N/A   Clear
7:15 AM 22.1 °F 17.4 °F 19.8 °F 91% 30.17 in 10.0 mi West 3.5 mph - N/A   Clear
7:35 AM 23.0 °F 18.4 °F 20.7 °F 91% 30.17 in 7.0 mi WNW 3.5 mph - N/A   Clear
7:55 AM 23.5 °F - 21.2 °F 91% 30.18 in 7.0 mi Calm Calm - N/A   Clear
8:15 AM 24.6 °F - 22.1 °F 90% 30.19 in 10.0 mi Calm Calm - N/A   Clear
8:35 AM 28.2 °F - 25.3 °F 89% 30.19 in 10.0 mi Calm Calm - N/A   Scattered Clouds
8:55 AM 30.6 °F - 27.5 °F 88% 30.19 in 10.0 mi Calm Calm - N/A   Clear
9:15 AM 33.3 °F - 30.0 °F 88% 30.19 in 10.0 mi Calm Calm - N/A   Clear
9:35 AM 36.3 °F - 31.6 °F 83% 30.20 in 10.0 mi Calm Calm - N/A   Clear
9:55 AM 40.3 °F - 32.0 °F 72% 30.20 in 10.0 mi Calm Calm - N/A   Clear
10:15 AM 43.2 °F 41.5 °F 32.9 °F 67% 30.19 in 10.0 mi WNW 3.5 mph - N/A   Clear
10:35 AM 46.4 °F 44.3 °F 33.8 °F 62% 30.20 in 10.0 mi NW 4.6 mph - N/A   Clear
10:55 AM 49.8 °F - 34.9 °F 56% 30.19 in 10.0 mi NNW 6.9 mph - N/A   Clear
11:35 AM 55.4 °F - 34.3 °F 45% 30.19 in 10.0 mi North 6.9 mph - N/A   Clear
11:55 AM 57.4 °F - 35.4 °F 44% 30.19 in 10.0 mi Calm Calm - N/A   Clear
12:15 PM 60.1 °F - 33.8 °F 37% 30.18 in 10.0 mi NNE 5.8 mph - N/A   Clear
12:35 PM 62.6 °F - 32.7 °F 33% 30.18 in 10.0 mi NNE 8.1 mph - N/A   Clear
12:55 PM 64.8 °F - 30.4 °F 28% 30.17 in 10.0 mi NE 9.2 mph - N/A   Clear
1:15 PM 65.7 °F - 29.7 °F 26% 30.17 in 10.0 mi NNE 6.9 mph - N/A   Clear
1:35 PM 65.3 °F - 28.8 °F 25% 30.17 in 10.0 mi North 12.7 mph 17.3 mph N/A   Clear
1:55 PM 66.6 °F - 27.5 °F 23% 30.16 in 10.0 mi Calm Calm - N/A   Clear
2:15 PM 67.5 °F - 26.1 °F 21% 30.15 in 10.0 mi NNE 3.5 mph - N/A   Clear
2:35 PM 68.4 °F - 24.1 °F 19% 30.15 in 10.0 mi North 9.2 mph 17.3 mph N/A   Clear
2:55 PM 68.9 °F - 22.8 °F 18% 30.14 in 10.0 mi NE 9.2 mph - N/A   Clear
3:15 PM 69.8 °F - 21.6 °F 16% 30.13 in 10.0 mi North 8.1 mph - N/A   Clear
3:35 PM 70.3 °F - 20.8 °F 15% 30.13 in 10.0 mi NNE 8.1 mph - N/A   Clear
3:55 PM 70.2 °F - 19.6 °F 15% 30.12 in 10.0 mi ENE 3.5 mph - N/A   Clear
4:15 PM 70.9 °F - 20.7 °F 15% 30.12 in 10.0 mi NE 5.8 mph - N/A   Clear
4:35 PM 71.1 °F - 20.8 °F 15% 30.12 in 10.0 mi NNW 4.6 mph - N/A   Clear
4:55 PM 70.9 °F - 21.9 °F 16% 30.12 in 10.0 mi NNE 8.1 mph - N/A   Clear
5:15 PM 71.4 °F - 22.1 °F 16% 30.11 in 10.0 mi NNE 5.8 mph 10.4 mph N/A   Clear
5:35 PM 71.1 °F - 21.9 °F 16% 30.12 in 10.0 mi NNE 3.5 mph - N/A   Clear
5:55 PM 70.7 °F - 22.1 °F 16% 30.12 in 10.0 mi NNW 5.8 mph - N/A   Clear
6:15 PM 70.2 °F - 22.8 °F 17% 30.12 in 10.0 mi NE 3.5 mph - N/A   Clear
6:35 PM 69.4 °F - 22.5 °F 17% 30.13 in 10.0 mi Calm Calm - N/A   Clear
6:55 PM 69.3 °F - 22.8 °F 17% 30.13 in 10.0 mi Calm Calm - N/A   Clear
7:15 PM 69.1 °F - 23.2 °F 18% 30.12 in 10.0 mi NNE 3.5 mph - N/A   Clear
7:35 PM 67.3 °F - 24.4 °F 20% 30.12 in 10.0 mi East 6.9 mph - N/A   Clear
7:55 PM 62.8 °F - 26.2 °F 25% 30.11 in 10.0 mi East 9.2 mph - N/A   Clear
8:15 PM 58.8 °F - 25.5 °F 28% 30.11 in 10.0 mi ESE 8.1 mph - N/A   Clear
8:35 PM 54.0 °F - 24.6 °F 32% 30.12 in 10.0 mi ESE 9.2 mph - N/A   Clear
8:55 PM 53.1 °F - 24.8 °F 33% 30.12 in 10.0 mi ESE 9.2 mph - N/A   Clear
9:15 PM 50.9 °F - 23.9 °F 35% 30.12 in 10.0 mi ESE 8.1 mph - N/A   Clear
9:35 PM 50.7 °F - 24.6 °F 36% 30.13 in 10.0 mi SE 8.1 mph - N/A   Clear
9:55 PM 50.4 °F - 26.2 °F 39% 30.14 in 10.0 mi SE 9.2 mph - N/A   Clear
10:15 PM 47.7 °F - 26.4 °F 44% 30.14 in 10.0 mi SE 8.1 mph - N/A   Clear
10:35 PM 51.4 °F - 32.0 °F 47% 30.15 in 10.0 mi SE 12.7 mph 17.3 mph N/A   Clear
10:55 PM 51.4 °F - 33.3 °F 50% 30.15 in 10.0 mi SSE 13.8 mph - N/A   Clear
11:15 PM 50.5 °F - 33.8 °F 53% 30.15 in 10.0 mi SSE 13.8 mph - N/A   Clear
11:35 PM 49.6 °F - 34.0 °F 55% 30.16 in 10.0 mi SSE 11.5 mph - N/A   Clear
11:55 PM 48.0 °F - 34.2 °F 59% 30.16 in 10.0 mi South 11.5 mph - N/A   Clear